Regional Weather Roundup
Issued by NWS

Home | Current Version | Previous Version | Graphics & Text | Print | Product List | Glossary On
Versions: 1 2 3 4 5 6 7 8 9 10 11 12 13 14 15 16 17 18 19 20 21 22 23 24 25 26 27 28 29 30 31 32 33 34 35 36 37 38 39 40 41 42 43 44 45 46 47 48 49 50
000
ASUS45 KPSR 161110
RWRAZ

ARIZONA REGIONAL HOURLY WEATHER ROUNDUP
NATIONAL WEATHER SERVICE PHOENIX AZ
400 AM MST TUE SEP 16 2014

NOTE: FAIR INDICATES FEW OR NO CLOUDS BELOW 12,000 FEET WITH NO
SIGNIFICANT WEATHER AND/OR OBSTRUCTIONS TO VISIBILITY.

AZZ001>003-036-161200-
NORTHWEST ARIZONA

CITY           SKY/WX    TMP DP  RH WIND       PRES   REMARKS
BULLHEAD CITY  CLEAR     86  55  35 CALM      29.81S
KINGMAN        CLEAR     73  52  47 SE10      30.02S
$$

AZZ004>008-015-016-018-161200-
NORTH CENTRAL ARIZONA

CITY           SKY/WX    TMP DP  RH WIND       PRES   REMARKS
GRAND CANYON   CLEAR     46  42  86 CALM      30.29S
PRESCOTT       CLEAR     60  50  69 CALM      30.17F
FLAGSTAFF      CLEAR     48  44  86 CALM      30.32F
PAYSON         CLOUDY    68  52  56 VRB5      30.21S
PAGE           CLEAR     73  45  36 SE9       30.13S
$$

AZZ009>014-017-161200-
NORTHEAST ARIZONA

CITY           SKY/WX    TMP DP  RH WIND       PRES   REMARKS
WINSLOW        CLOUDY    69  55  60 E9        30.19S
SAINT JOHNS    CLOUDY    64  55  72 E14G22    30.24F
WINDOW ROCK    MOCLDY    59  50  72 CALM      30.32
SHOW LOW       CLOUDY    57  48  72 S7        30.30S
$$

AZZ023-161200-
GREATER PHOENIX AREA

CITY           SKY/WX    TMP DP  RH WIND       PRES   REMARKS
PHOENIX        MOCLDY    86  64  47 SE6       29.89S
BUCKEYE          N/A     82  72  69 NE5       29.89R
LUKE AFB       PTCLDY    86  69  56 S8        29.88S
DEER VALLEY    PTCLDY    84  63  49 SE7       29.91S
SCOTTSDALE     MOCLDY    84  64  50 SE3       29.93F
MESA-GATEWAY   CLOUDY   N/A N/A N/A S6        29.94S
$$

AZZ027-028-161200-
SOUTHWEST MARICOPA COUNTY AND PINAL COUNTY

CITY           SKY/WX    TMP DP  RH WIND       PRES   REMARKS
CASA GRANDE    MOCLDY    81  64  57 E3        29.93F
$$

AZZ503-504-507>509-161200-
SOUTHEAST ARIZONA

CITY           SKY/WX    TMP DP  RH WIND       PRES   REMARKS
TUCSON         CLOUDY    78  62  57 SE12      30.02F
DAVIS-MONTHAN  CLOUDY    75  63  64 SE13      30.00F
NOGALES        RAIN      66  64  93 CALM      30.09F FOG
SIERRA VISTA   LGT RAIN  64  63  94 SE9       30.16F
DOUGLAS        CLOUDY    66  64  93 NW6       30.13F
SAFFORD        CLOUDY    75  61  61 E12       30.08S
$$

AZZ020-021-025-026-031-161200-
SOUTHWEST ARIZONA

CITY           SKY/WX    TMP DP  RH WIND       PRES   REMARKS
YUMA           PTCLDY    87  74  64 SE12      29.80S
$$

CAZ031-033-041-043-047-048-061-161200-
SOUTHERN CALIFORNIA

CITY           SKY/WX    TMP DP  RH WIND       PRES   REMARKS
DOWNTOWN L.A.  CLEAR     78  62  57 E3        29.76S
L.A. AIRPORT   CLEAR     74  62  66 E5        29.76F
SAN DIEGO      CLEAR     76  68  76 NW3       29.76F
BURBANK        CLEAR     81  56  42 CALM      29.79S
ONTARIO        CLEAR     80  55  42 CALM      29.80F
RIVERSIDE      CLEAR     78  58  49 NE3       29.80F
PALM SPRINGS   CLEAR     88  75  65 CALM      29.83S
EL CENTRO NAS  PTCLDY    89  68  49 E10       29.74S
IMPERIAL       PTCLDY    87  72  60 SE14      29.74S
BLYTHE         CLEAR     86  73  65 S10       29.80S
NEEDLES        CLEAR     90  61  37 W9        29.81S
$$

NVZ020-UTZ003-161200-
SOUTHERN NEVADA-UTAH

CITY           SKY/WX    TMP DP  RH WIND       PRES   REMARKS
LAS VEGAS      CLEAR     82  50  32 SW6       29.86S
SALT LAKE CITY CLEAR     66  43  43 S12       30.07F
$$

NMZ009-TXZ055-161200-
NEW MEXICO-WEST TEXAS

CITY           SKY/WX    TMP DP  RH WIND       PRES   REMARKS
ALBUQUERQUE    CLOUDY    66  55  67 E10       30.29F
EL PASO        LGT RAIN  67  63  87 N5        30.18F
$$


........................KEY........................
SKY/WX - SKY CONDITION/WEATHER
TMP    - TEMPERATURE IN FAHRENHEIT
DP     - DEW POINT IN FAHRENHEIT
RH     - RELATIVE HUMIDITY IN PERCENT
WIND   - DIRECTION AND SPEED IN MILES PER HOUR (MPH)
VRB    - VARIABLE WIND DIRECTION
PRES   - MEAN SEA LEVEL PRESSURE IN INCHES OF MERCURY
         F - FALLING PRESSURE   R - RISING PRESSURE
         S - STEADY PRESSURE
VSB    - VISIBILITY IN MILES
HX     - HEAT INDEX IN FAHRENHEIT
WCI    - WIND CHILL INDEX IN FAHRENHEIT
TC     - TEMPERATURE IN CELSIUS WHICH IS ALSO KNOWN AS
         TEMPERATURE IN CENTIGRADE
AFB    - AIR FORCE BASE
         LUKE AFB IS LUKE AIR FORCE BASE
         DAVIS-MONTHAN IS DAVIS-MONTHAN AIR FORCE BASE
NAS    - NAVAL AIR STATION
         EL CENTRO NAS IS EL CENTRO NAVAL AIR STATION
N/A    - NOT AVAILABLE


USA.gov is the U.S. government's official web portal to all federal, state and local government web resources and services.